Private Wetterstation Wechselburg
Wetterdaten: Mittwoch, 25.08.2021
Datum Zeit Temp. +2m Bodentemp. Temp.+5cm Temp. Wind Windchill X Diff Temp. Feuchte +2m Feuchte +5cm Luftdruck Regen Wind Richtung Richtung Sonnenschein Taupunkt Windchill Windben
25.08.2021 00:00 10,5 C 18,9 C 10,7 C 10,1 C 9,4 C 0,0 C 87 % 93 % 1024,1 hPa 0,0 l/m 0,0 km/h (0 Bft) N-NO 22 0 min 8,4 C 9,4 C 0,0 km/h (0 Bft)
25.08.2021 00:05 10,3 C 18,9 C 10,5 C 10,0 C 9,3 C 0,0 C 87 % 93 % 1024,1 hPa 0,0 l/m 0,0 km/h (0 Bft) N-NO 22 0 min 8,2 C 9,3 C 0,0 km/h (0 Bft)
25.08.2021 00:10 10,3 C 18,9 C 10,4 C 9,9 C 9,2 C 0,0 C 87 % 93 % 1024,1 hPa 0,0 l/m 0,0 km/h (0 Bft) N-NO 22 0 min 8,2 C 9,2 C 0,0 km/h (0 Bft)
25.08.2021 00:15 10,1 C 18,9 C 10,3 C 9,8 C 9,1 C 0,0 C 87 % 93 % 1024,0 hPa 0,0 l/m 0,0 km/h (0 Bft) N-NO 22 0 min 8,0 C 9,1 C 0,0 km/h (0 Bft)
25.08.2021 00:20 10,0 C 18,8 C 10,3 C 9,7 C 9,0 C 0,0 C 87 % 93 % 1024,0 hPa 0,0 l/m 0,0 km/h (0 Bft) N-NO 22 0 min 7,9 C 9,0 C 0,0 km/h (0 Bft)
25.08.2021 00:25 9,9 C 18,8 C 10,2 C 9,6 C 9,0 C 0,0 C 87 % 94 % 1024,0 hPa 0,0 l/m 0,0 km/h (0 Bft) N-NO 22 0 min 7,8 C 9,0 C 0,0 km/h (0 Bft)
25.08.2021 00:30 9,9 C 18,8 C 10,2 C 9,6 C 9,0 C 0,0 C 87 % 94 % 1024,0 hPa 0,0 l/m 0,0 km/h (0 Bft) N-NO 22 0 min 7,8 C 9,0 C 0,0 km/h (0 Bft)
25.08.2021 00:35 9,7 C 18,8 C 10,1 C 9,5 C 9,0 C 0,0 C 87 % 94 % 1024,0 hPa 0,0 l/m 0,0 km/h (0 Bft) N-NO 22 0 min 7,6 C 9,0 C 0,0 km/h (0 Bft)
25.08.2021 00:40 9,7 C 18,8 C 10,0 C 9,4 C 8,9 C 0,0 C 87 % 94 % 1024,0 hPa 0,0 l/m 0,0 km/h (0 Bft) N-NO 22 0 min 7,6 C 8,9 C 0,0 km/h (0 Bft)
25.08.2021 00:45 9,6 C 18,8 C 9,9 C 9,3 C 8,7 C 0,0 C 87 % 94 % 1024,0 hPa 0,0 l/m 0,0 km/h (0 Bft) N-NO 22 0 min 7,5 C 8,7 C 0,0 km/h (0 Bft)
25.08.2021 00:50 9,5 C 18,7 C 9,9 C 9,2 C 8,6 C 0,0 C 87 % 94 % 1024,0 hPa 0,0 l/m 0,0 km/h (0 Bft) N-NO 22 0 min 7,4 C 8,6 C 0,0 km/h (0 Bft)
25.08.2021 00:55 9,5 C 18,7 C 9,8 C 9,1 C 8,4 C 0,0 C 87 % 94 % 1024,1 hPa 0,0 l/m 0,0 km/h (0 Bft) N-NO 22 0 min 7,4 C 8,4 C 0,0 km/h (0 Bft)
25.08.2021 01:00 9,3 C 18,7 C 9,7 C 9,0 C 8,4 C 0,0 C 87 % 94 % 1024,1 hPa 0,0 l/m 0,0 km/h (0 Bft) N-NO 22 0 min 7,2 C 8,4 C 0,0 km/h (0 Bft)
25.08.2021 01:05 9,2 C 18,7 C 9,7 C 8,9 C 8,4 C 0,0 C 87 % 94 % 1024,1 hPa 0,0 l/m 0,0 km/h (0 Bft) N-NO 22 0 min 7,2 C 8,4 C 0,0 km/h (0 Bft)
25.08.2021 01:10 9,2 C 18,7 C 9,7 C 8,9 C 8,4 C 0,0 C 87 % 94 % 1024,1 hPa 0,0 l/m 0,0 km/h (0 Bft) N-NO 22 0 min 7,2 C 8,4 C 0,0 km/h (0 Bft)
25.08.2021 01:15 9,1 C 18,7 C 9,6 C 8,9 C 8,4 C 0,0 C 87 % 94 % 1024,0 hPa 0,0 l/m 0,0 km/h (0 Bft) N-NO 22 0 min 7,1 C 8,4 C 0,0 km/h (0 Bft)
25.08.2021 01:20 9,0 C 18,7 C 9,6 C 8,8 C 8,4 C 0,0 C 87 % 94 % 1024,0 hPa 0,0 l/m 0,0 km/h (0 Bft) N-NO 22 0 min 7,0 C 8,4 C 0,0 km/h (0 Bft)
25.08.2021 01:25 8,9 C 18,6 C 9,5 C 8,7 C 8,4 C 0,0 C 87 % 94 % 1024,0 hPa 0,0 l/m 0,0 km/h (0 Bft) N-NO 22 0 min 6,9 C 8,4 C 0,0 km/h (0 Bft)
25.08.2021 01:30 8,8 C 18,6 C 9,5 C 8,6 C 8,3 C 0,0 C 87 % 94 % 1024,0 hPa 0,0 l/m 0,0 km/h (0 Bft) N-NO 22 0 min 6,8 C 8,3 C 0,0 km/h (0 Bft)
25.08.2021 01:35 8,8 C 18,6 C 9,5 C 8,6 C 8,2 C 0,0 C 87 % 94 % 1023,9 hPa 0,0 l/m 0,0 km/h (0 Bft) N-NO 22 0 min 6,8 C 8,2 C 0,0 km/h (0 Bft)
25.08.2021 01:40 8,7 C 18,6 C 9,4 C 8,5 C 8,0 C 0,0 C 87 % 94 % 1023,9 hPa 0,0 l/m 0,0 km/h (0 Bft) N-NO 22 0 min 6,7 C 8,0 C 0,0 km/h (0 Bft)
25.08.2021 01:45 8,7 C 18,6 C 9,3 C 8,5 C 8,0 C 0,0 C 87 % 94 % 1023,9 hPa 0,0 l/m 0,0 km/h (0 Bft) N-NO 22 0 min 6,7 C 8,0 C 0,0 km/h (0 Bft)
25.08.2021 01:50 8,5 C 18,6 C 9,2 C 8,3 C 8,0 C 0,0 C 87 % 94 % 1023,9 hPa 0,0 l/m 0,0 km/h (0 Bft) N-NO 22 0 min 6,5 C 8,0 C 0,0 km/h (0 Bft)
25.08.2021 01:55 8,4 C 18,5 C 9,1 C 8,2 C 7,9 C 0,0 C 87 % 94 % 1024,0 hPa 0,0 l/m 0,0 km/h (0 Bft) N-NO 22 0 min 6,4 C 7,9 C 0,0 km/h (0 Bft)
25.08.2021 02:00 8,4 C 18,5 C 9,1 C 8,2 C 7,8 C 0,0 C 87 % 94 % 1024,0 hPa 0,0 l/m 0,0 km/h (0 Bft) N-NO 22 0 min 6,4 C 7,8 C 0,0 km/h (0 Bft)
25.08.2021 02:05 8,3 C 18,5 C 9,1 C 8,1 C 7,7 C 0,0 C 87 % 94 % 1024,0 hPa 0,0 l/m 0,0 km/h (0 Bft) N-NO 22 0 min 6,3 C 7,7 C 0,0 km/h (0 Bft)
25.08.2021 02:10 8,3 C 18,5 C 9,1 C 8,1 C 7,7 C 0,0 C 87 % 94 % 1024,0 hPa 0,0 l/m 0,0 km/h (0 Bft) N-NO 22 0 min 6,3 C 7,7 C 0,0 km/h (0 Bft)
25.08.2021 02:15 8,3 C 18,4 C 9,1 C 8,1 C 7,7 C 0,0 C 87 % 94 % 1023,9 hPa 0,0 l/m 0,0 km/h (0 Bft) N-NO 22 0 min 6,3 C 7,7 C 0,0 km/h (0 Bft)
25.08.2021 02:20 8,1 C 18,4 C 9,1 C 8,0 C 7,7 C 0,0 C 87 % 94 % 1023,9 hPa 0,0 l/m 0,0 km/h (0 Bft) N-NO 22 0 min 6,1 C 7,7 C 0,0 km/h (0 Bft)
25.08.2021 02:25 8,0 C 18,4 C 9,1 C 7,9 C 7,8 C 0,0 C 87 % 94 % 1023,9 hPa 0,0 l/m 0,0 km/h (0 Bft) N-NO 22 0 min 6,0 C 7,8 C 0,0 km/h (0 Bft)
25.08.2021 02:30 8,0 C 18,4 C 9,1 C 7,9 C 7,7 C 0,0 C 87 % 94 % 1023,9 hPa 0,0 l/m 0,0 km/h (0 Bft) N-NO 22 0 min 6,0 C 7,7 C 0,0 km/h (0 Bft)
25.08.2021 02:35 8,0 C 18,4 C 8,9 C 7,9 C 7,8 C 0,0 C 87 % 94 % 1024,0 hPa 0,0 l/m 0,0 km/h (0 Bft) N-NO 22 0 min 6,0 C 7,8 C 0,0 km/h (0 Bft)
25.08.2021 02:40 8,0 C 18,4 C 8,9 C 7,9 C 7,7 C 0,0 C 87 % 94 % 1024,0 hPa 0,0 l/m 0,0 km/h (0 Bft) N-NO 22 0 min 6,0 C 7,7 C 0,0 km/h (0 Bft)
25.08.2021 02:45 7,9 C 18,4 C 8,9 C 7,8 C 7,7 C 0,0 C 87 % 94 % 1024,0 hPa 0,0 l/m 0,0 km/h (0 Bft) N-NO 22 0 min 5,9 C 7,7 C 0,0 km/h (0 Bft)
25.08.2021 02:50 7,9 C 18,3 C 8,9 C 7,8 C 7,6 C 0,0 C 87 % 94 % 1024,0 hPa 0,0 l/m 0,0 km/h (0 Bft) N-NO 22 0 min 5,9 C 7,6 C 0,0 km/h (0 Bft)
25.08.2021 02:55 7,8 C 18,3 C 8,8 C 7,7 C 7,5 C 0,0 C 87 % 94 % 1023,8 hPa 0,0 l/m 0,0 km/h (0 Bft) N-NO 22 0 min 5,8 C 7,5 C 0,0 km/h (0 Bft)
25.08.2021 03:00 7,8 C 18,3 C 8,8 C 7,7 C 7,4 C 0,0 C 87 % 94 % 1023,8 hPa 0,0 l/m 0,0 km/h (0 Bft) N-NO 22 0 min 5,8 C 7,4 C 0,0 km/h (0 Bft)
25.08.2021 03:05 7,6 C 18,3 C 8,7 C 7,5 C 7,3 C 0,0 C 87 % 94 % 1023,8 hPa 0,0 l/m 0,0 km/h (0 Bft) N-NO 22 0 min 5,6 C 7,3 C 0,0 km/h (0 Bft)
25.08.2021 03:10 7,6 C 18,3 C 8,7 C 7,5 C 7,3 C 0,0 C 87 % 94 % 1023,8 hPa 0,0 l/m 0,0 km/h (0 Bft) N-NO 22 0 min 5,6 C 7,3 C 0,0 km/h (0 Bft)
25.08.2021 03:15 7,6 C 18,3 C 8,5 C 7,5 C 7,3 C 0,0 C 87 % 94 % 1024,3 hPa 0,0 l/m 0,0 km/h (0 Bft) N-NO 22 0 min 5,6 C 7,3 C 0,0 km/h (0 Bft)
25.08.2021 03:20 7,6 C 18,3 C 8,5 C 7,5 C 7,2 C 0,0 C 87 % 94 % 1024,3 hPa 0,0 l/m 0,0 km/h (0 Bft) N-NO 22 0 min 5,6 C 7,2 C 0,0 km/h (0 Bft)
25.08.2021 03:25 7,5 C 18,3 C 8,5 C 7,4 C 7,2 C 0,0 C 87 % 94 % 1024,3 hPa 0,0 l/m 0,0 km/h (0 Bft) N-NO 22 0 min 5,5 C 7,2 C 0,0 km/h (0 Bft)
25.08.2021 03:30 7,4 C 18,2 C 8,5 C 7,3 C 7,1 C 0,0 C 87 % 94 % 1024,3 hPa 0,0 l/m 0,0 km/h (0 Bft) N-NO 22 0 min 5,4 C 7,1 C 0,0 km/h (0 Bft)
25.08.2021 03:35 7,4 C 18,2 C 8,5 C 7,3 C 7,0 C 0,0 C 87 % 94 % 1023,6 hPa 0,0 l/m 0,0 km/h (0 Bft) N-NO 22 0 min 5,4 C 7,0 C 0,0 km/h (0 Bft)
25.08.2021 03:40 7,3 C 18,2 C 8,4 C 7,2 C 7,0 C 0,0 C 87 % 94 % 1023,6 hPa 0,0 l/m 0,0 km/h (0 Bft) N-NO 22 0 min 5,3 C 7,0 C 0,0 km/h (0 Bft)
25.08.2021 03:45 7,2 C 18,2 C 8,5 C 7,1 C 7,0 C 0,0 C 87 % 94 % 1023,6 hPa 0,0 l/m 0,0 km/h (0 Bft) N-NO 22 0 min 5,2 C 7,0 C 0,0 km/h (0 Bft)
25.08.2021 03:50 7,2 C 18,2 C 8,5 C 7,1 C 7,0 C 0,0 C 87 % 94 % 1023,6 hPa 0,0 l/m 0,0 km/h (0 Bft) N-NO 22 0 min 5,2 C 7,0 C 0,0 km/h (0 Bft)
25.08.2021 03:55 7,2 C 18,2 C 8,4 C 7,1 C 6,9 C 0,0 C 87 % 94 % 1023,7 hPa 0,0 l/m 0,0 km/h (0 Bft) N-NO 22 0 min 5,2 C 6,9 C 0,0 km/h (0 Bft)
25.08.2021 04:00 7,2 C 18,2 C 8,3 C 7,1 C 6,9 C 0,0 C 87 % 94 % 1023,7 hPa 0,0 l/m 0,0 km/h (0 Bft) N-NO 22 0 min 5,2 C 6,9 C 0,0 km/h (0 Bft)
25.08.2021 04:05 7,2 C 18,2 C 8,4 C 7,1 C 6,9 C 0,0 C 87 % 94 % 1023,7 hPa 0,0 l/m 0,0 km/h (0 Bft) N-NO 22 0 min 5,2 C 6,9 C 0,0 km/h (0 Bft)
25.08.2021 04:10 7,2 C 18,2 C 8,5 C 7,1 C 6,9 C 0,0 C 87 % 94 % 1023,7 hPa 0,0 l/m 0,0 km/h (0 Bft) N-NO 22 0 min 5,2 C 6,9 C 0,0 km/h (0 Bft)
25.08.2021 04:15 7,1 C 18,2 C 8,5 C 7,1 C 7,0 C 0,0 C 87 % 94 % 1023,7 hPa 0,0 l/m 0,0 km/h (0 Bft) N-NO 22 0 min 5,1 C 7,0 C 0,0 km/h (0 Bft)
25.08.2021 04:20 7,1 C 18,2 C 8,5 C 7,1 C 7,1 C 0,0 C 87 % 94 % 1023,7 hPa 0,0 l/m 0,0 km/h (0 Bft) N-NO 22 0 min 5,1 C 7,1 C 0,0 km/h (0 Bft)
25.08.2021 04:25 7,1 C 18,2 C 8,4 C 7,1 C 7,1 C 0,0 C 88 % 94 % 1023,7 hPa 0,0 l/m 0,0 km/h (0 Bft) N-NO 22 0 min 5,2 C 7,1 C 0,0 km/h (0 Bft)
25.08.2021 04:30 7,1 C 18,1 C 8,3 C 7,1 C 7,0 C 0,0 C 87 % 94 % 1023,7 hPa 0,0 l/m 0,0 km/h (0 Bft) N-NO 22 0 min 5,1 C 7,0 C 0,0 km/h (0 Bft)
25.08.2021 04:35 7,0 C 18,1 C 8,3 C 7,0 C 7,0 C 0,0 C 88 % 94 % 1023,2 hPa 0,0 l/m 0,0 km/h (0 Bft) N-NO 22 0 min 5,2 C 7,0 C 0,0 km/h (0 Bft)
25.08.2021 04:40 6,9 C 18,1 C 8,2 C 6,9 C 6,9 C 0,0 C 88 % 94 % 1023,2 hPa 0,0 l/m 0,0 km/h (0 Bft) N-NO 22 0 min 5,1 C 6,9 C 0,0 km/h (0 Bft)
25.08.2021 04:45 6,9 C 18,1 C 8,1 C 6,9 C 6,8 C 0,0 C 88 % 94 % 1023,2 hPa 0,0 l/m 0,0 km/h (0 Bft) N-NO 22 0 min 5,1 C 6,8 C 0,0 km/h (0 Bft)
25.08.2021 04:50 6,8 C 18,1 C 8,0 C 6,8 C 6,7 C 0,0 C 88 % 94 % 1023,2 hPa 0,0 l/m 0,0 km/h (0 Bft) N-NO 22 0 min 5,0 C 6,7 C 0,0 km/h (0 Bft)
25.08.2021 04:55 6,8 C 18,1 C 8,0 C 6,7 C 6,5 C 0,0 C 88 % 94 % 1023,2 hPa 0,0 l/m 0,0 km/h (0 Bft) N-NO 22 0 min 5,0 C 6,5 C 0,0 km/h (0 Bft)
25.08.2021 05:00 6,8 C 18,0 C 8,0 C 6,7 C 6,5 C 0,0 C 88 % 94 % 1023,2 hPa 0,0 l/m 0,0 km/h (0 Bft) N-NO 22 0 min 5,0 C 6,5 C 0,0 km/h (0 Bft)
25.08.2021 05:05 6,7 C 18,0 C 7,9 C 6,6 C 6,5 C 0,0 C 88 % 94 % 1023,2 hPa 0,0 l/m 0,0 km/h (0 Bft) N-NO 22 0 min 4,9 C 6,5 C 0,0 km/h (0 Bft)
25.08.2021 05:10 6,7 C 18,0 C 7,9 C 6,7 C 6,6 C 0,0 C 88 % 94 % 1023,2 hPa 0,0 l/m 0,0 km/h (0 Bft) N-NO 22 0 min 4,9 C 6,6 C 0,0 km/h (0 Bft)
25.08.2021 05:15 6,7 C 18,0 C 7,8 C 6,7 C 6,6 C 0,0 C 88 % 94 % 1023,1 hPa 0,0 l/m 0,0 km/h (0 Bft) N-NO 22 0 min 4,9 C 6,6 C 0,0 km/h (0 Bft)
25.08.2021 05:20 6,5 C 18,0 C 7,8 C 6,5 C 6,5 C 0,0 C 88 % 94 % 1023,1 hPa 0,0 l/m 0,0 km/h (0 Bft) N-NO 22 0 min 4,7 C 6,5 C 0,0 km/h (0 Bft)
25.08.2021 05:25 6,5 C 18,0 C 7,9 C 6,5 C 6,4 C 0,0 C 88 % 94 % 1023,1 hPa 0,0 l/m 0,0 km/h (0 Bft) N-NO 22 0 min 4,7 C 6,4 C 0,0 km/h (0 Bft)
25.08.2021 05:30 6,4 C 18,0 C 7,9 C 6,4 C 6,4 C 0,0 C 87 % 94 % 1023,1 hPa 0,0 l/m 0,0 km/h (0 Bft) N-NO 22 0 min 4,4 C 6,4 C 0,0 km/h (0 Bft)
25.08.2021 05:35 6,5 C 17,9 C 7,9 C 6,5 C 6,5 C 0,0 C 88 % 94 % 1023,2 hPa 0,0 l/m 0,0 km/h (0 Bft) N-NO 22 0 min 4,7 C 6,5 C 0,0 km/h (0 Bft)
25.08.2021 05:40 6,4 C 17,9 C 7,9 C 6,5 C 6,5 C 0,1 C 87 % 94 % 1023,2 hPa 0,0 l/m 0,0 km/h (0 Bft) N-NO 22 0 min 4,4 C 6,5 C 0,0 km/h (0 Bft)
25.08.2021 05:45 6,4 C 17,9 C 7,7 C 6,5 C 6,5 C 0,1 C 87 % 94 % 1023,2 hPa 0,0 l/m 0,0 km/h (0 Bft) N-NO 22 0 min 4,4 C 6,5 C 0,0 km/h (0 Bft)
25.08.2021 05:50 6,3 C 17,9 C 7,8 C 6,4 C 6,4 C 0,1 C 87 % 94 % 1023,2 hPa 0,0 l/m 0,0 km/h (0 Bft) N-NO 22 0 min 4,3 C 6,4 C 0,0 km/h (0 Bft)
25.08.2021 05:55 6,3 C 17,9 C 7,9 C 6,5 C 6,5 C 0,2 C 87 % 94 % 1023,2 hPa 0,0 l/m 0,0 km/h (0 Bft) N-NO 22 0 min 4,3 C 6,5 C 0,0 km/h (0 Bft)
25.08.2021 06:00 6,3 C 17,9 C 7,9 C 6,5 C 6,5 C 0,2 C 87 % 94 % 1023,2 hPa 0,0 l/m 0,0 km/h (0 Bft) N-NO 22 0 min 4,3 C 6,5 C 0,0 km/h (0 Bft)
25.08.2021 06:05 6,2 C 17,8 C 7,8 C 6,5 C 6,5 C 0,3 C 87 % 94 % 1023,2 hPa 0,0 l/m 0,0 km/h (0 Bft) N-NW 337 0 min 4,2 C 6,5 C 0,0 km/h (0 Bft)
25.08.2021 06:10 6,3 C 17,8 C 7,7 C 6,6 C 6,6 C 0,3 C 87 % 94 % 1023,2 hPa 0,0 l/m 0,0 km/h (0 Bft) N-NW 337 0 min 4,3 C 6,6 C 0,0 km/h (0 Bft)
25.08.2021 06:15 6,1 C 17,8 C 7,6 C 6,5 C 6,5 C 0,4 C 87 % 94 % 1022,9 hPa 0,0 l/m 0,0 km/h (0 Bft) N-NW 337 0 min 4,1 C 6,5 C 0,0 km/h (0 Bft)
25.08.2021 06:20 6,1 C 17,8 C 7,7 C 6,5 C 6,5 C 0,4 C 87 % 94 % 1022,9 hPa 0,0 l/m 0,0 km/h (0 Bft) N 360 0 min 4,1 C 6,5 C 0,0 km/h (0 Bft)
25.08.2021 06:25 6,0 C 17,8 C 7,6 C 6,5 C 6,5 C 0,5 C 87 % 94 % 1022,9 hPa 0,0 l/m 0,0 km/h (0 Bft) N 360 5 min 4,0 C 6,5 C 0,0 km/h (0 Bft)
25.08.2021 06:30 6,0 C 17,8 C 7,7 C 6,5 C 6,5 C 0,5 C 87 % 94 % 1022,9 hPa 0,0 l/m 0,0 km/h (0 Bft) N 360 5 min 4,0 C 6,5 C 0,0 km/h (0 Bft)
25.08.2021 06:35 6,0 C 17,8 C 7,7 C 6,7 C 6,7 C 0,7 C 87 % 94 % 1022,9 hPa 0,0 l/m 0,0 km/h (0 Bft) N 360 5 min 4,0 C 6,7 C 0,0 km/h (0 Bft)
25.08.2021 06:40 6,0 C 17,8 C 7,8 C 6,9 C 6,9 C 0,9 C 87 % 94 % 1022,9 hPa 0,0 l/m 0,0 km/h (0 Bft) N 360 5 min 4,0 C 6,9 C 0,0 km/h (0 Bft)
25.08.2021 06:45 6,0 C 17,7 C 7,9 C 7,2 C 7,2 C 1,2 C 87 % 94 % 1022,9 hPa 0,0 l/m 0,0 km/h (0 Bft) N 360 5 min 4,0 C 7,2 C 0,0 km/h (0 Bft)
25.08.2021 06:50 6,1 C 17,7 C 8,1 C 7,5 C 7,5 C 1,4 C 87 % 94 % 1022,9 hPa 0,0 l/m 0,0 km/h (0 Bft) N 360 5 min 4,1 C 7,5 C 0,0 km/h (0 Bft)
25.08.2021 06:55 6,3 C 17,7 C 8,3 C 7,8 C 7,8 C 1,5 C 87 % 94 % 1022,8 hPa 0,0 l/m 0,0 km/h (0 Bft) N-NW 337 5 min 4,3 C 7,8 C 0,0 km/h (0 Bft)
25.08.2021 07:00 6,4 C 17,7 C 8,5 C 8,2 C 8,2 C 1,8 C 87 % 94 % 1022,8 hPa 0,0 l/m 0,0 km/h (0 Bft) N-NW 337 5 min 4,4 C 8,2 C 0,0 km/h (0 Bft)
25.08.2021 07:05 6,5 C 17,7 C 8,6 C 8,5 C 8,5 C 2,0 C 88 % 94 % 1022,8 hPa 0,0 l/m 0,0 km/h (0 Bft) N-NW 337 5 min 4,7 C 8,5 C 0,0 km/h (0 Bft)
25.08.2021 07:10 6,7 C 17,7 C 8,7 C 8,8 C 8,8 C 2,1 C 88 % 94 % 1022,8 hPa 0,0 l/m 0,0 km/h (0 Bft) N-NW 337 5 min 4,9 C 8,8 C 0,0 km/h (0 Bft)
25.08.2021 07:15 6,8 C 17,7 C 9,0 C 9,1 C 9,1 C 2,3 C 88 % 94 % 1022,8 hPa 0,0 l/m 0,0 km/h (0 Bft) N-NW 337 5 min 5,0 C 9,1 C 0,0 km/h (0 Bft)
25.08.2021 07:20 6,9 C 17,7 C 9,1 C 9,3 C 9,3 C 2,4 C 88 % 94 % 1022,8 hPa 0,0 l/m 0,0 km/h (0 Bft) N-NW 337 5 min 5,1 C 9,3 C 0,0 km/h (0 Bft)
25.08.2021 07:25 7,1 C 17,6 C 9,2 C 9,4 C 9,4 C 2,3 C 88 % 94 % 1022,8 hPa 0,0 l/m 0,0 km/h (0 Bft) N-NW 337 5 min 5,2 C 9,4 C 0,0 km/h (0 Bft)
25.08.2021 07:30 7,3 C 17,6 C 9,3 C 9,4 C 9,4 C 2,1 C 88 % 94 % 1022,8 hPa 0,0 l/m 0,0 km/h (0 Bft) SW 225 5 min 5,4 C 9,4 C 0,0 km/h (0 Bft)
25.08.2021 07:35 7,3 C 17,6 C 9,3 C 9,5 C 9,5 C 2,2 C 88 % 94 % 1022,9 hPa 0,0 l/m 0,0 km/h (0 Bft) S 180 5 min 5,4 C 9,5 C 0,0 km/h (0 Bft)
25.08.2021 07:40 7,5 C 17,6 C 9,3 C 9,6 C 9,6 C 2,1 C 88 % 94 % 1022,9 hPa 0,0 l/m 0,0 km/h (0 Bft) SW 225 0 min 5,6 C 9,6 C 0,0 km/h (0 Bft)
25.08.2021 07:45 7,6 C 17,6 C 9,5 C 9,7 C 9,7 C 2,1 C 88 % 94 % 1022,9 hPa 0,0 l/m 0,0 km/h (0 Bft) SW 225 0 min 5,7 C 9,7 C 0,0 km/h (0 Bft)
25.08.2021 07:50 7,7 C 17,6 C 9,6 C 9,9 C 9,9 C 2,2 C 88 % 95 % 1022,9 hPa 0,0 l/m 0,0 km/h (0 Bft) S 180 0 min 5,8 C 9,9 C 0,0 km/h (0 Bft)
25.08.2021 07:55 7,9 C 17,6 C 9,7 C 10,2 C 10,2 C 2,3 C 88 % 95 % 1022,9 hPa 0,0 l/m 0,0 km/h (0 Bft) SW 225 0 min 6,0 C 10,2 C 0,0 km/h (0 Bft)
25.08.2021 08:00 7,9 C 17,6 C 9,7 C 10,2 C 10,2 C 2,3 C 88 % 95 % 1022,9 hPa 0,0 l/m 0,0 km/h (0 Bft) S-SW 202 0 min 6,0 C 10,2 C 0,0 km/h (0 Bft)
25.08.2021 08:05 8,0 C 17,5 C 9,9 C 10,4 C 10,4 C 2,4 C 88 % 94 % 1022,9 hPa 0,0 l/m 0,0 km/h (0 Bft) SW 225 0 min 6,1 C 10,4 C 0,0 km/h (0 Bft)
25.08.2021 08:10 8,3 C 17,5 C 10,1 C 10,7 C 10,7 C 2,4 C 88 % 94 % 1022,9 hPa 0,0 l/m 0,0 km/h (0 Bft) S-SW 202 0 min 6,4 C 10,7 C 0,0 km/h (0 Bft)
25.08.2021 08:15 8,4 C 17,5 C 10,2 C 11,0 C 11,0 C 2,6 C 88 % 94 % 1022,9 hPa 0,0 l/m 0,0 km/h (0 Bft) SW 225 0 min 6,5 C 11,0 C 0,0 km/h (0 Bft)
25.08.2021 08:20 8,4 C 17,5 C 10,3 C 11,1 C 11,1 C 2,7 C 88 % 94 % 1022,9 hPa 0,0 l/m 0,0 km/h (0 Bft) W-SW 247 0 min 6,5 C 11,1 C 0,0 km/h (0 Bft)
25.08.2021 08:25 8,7 C 17,5 C 10,4 C 11,2 C 11,2 C 2,5 C 88 % 94 % 1022,9 hPa 0,0 l/m 0,0 km/h (0 Bft) S 180 0 min 6,8 C 11,2 C 0,0 km/h (0 Bft)
25.08.2021 08:30 8,7 C 17,5 C 10,6 C 11,3 C 11,3 C 2,6 C 88 % 94 % 1022,9 hPa 0,0 l/m 0,0 km/h (0 Bft) SW 225 0 min 6,8 C 11,3 C 0,0 km/h (0 Bft)
25.08.2021 08:35 8,9 C 17,5 C 10,7 C 11,4 C 11,4 C 2,5 C 88 % 94 % 1022,8 hPa 0,0 l/m 0,0 km/h (0 Bft) S-SO 157 0 min 7,0 C 11,4 C 0,0 km/h (0 Bft)
25.08.2021 08:40 9,0 C 17,5 C 10,8 C 11,7 C 11,7 C 2,7 C 88 % 94 % 1022,8 hPa 0,0 l/m 0,0 km/h (0 Bft) S-SW 202 0 min 7,1 C 11,7 C 0,0 km/h (0 Bft)
25.08.2021 08:45 9,2 C 17,5 C 11,0 C 12,0 C 12,0 C 2,8 C 88 % 94 % 1022,8 hPa 0,0 l/m 0,0 km/h (0 Bft) SW 225 0 min 7,3 C 12,0 C 0,0 km/h (0 Bft)
25.08.2021 08:50 9,3 C 17,6 C 11,1 C 12,0 C 12,0 C 2,7 C 88 % 94 % 1022,8 hPa 0,0 l/m 0,0 km/h (0 Bft) SW 225 0 min 7,4 C 12,0 C 0,0 km/h (0 Bft)
25.08.2021 08:55 9,6 C 17,6 C 11,3 C 12,4 C 12,4 C 2,8 C 88 % 94 % 1022,6 hPa 0,0 l/m 0,0 km/h (0 Bft) S 180 0 min 7,7 C 12,4 C 0,0 km/h (0 Bft)
25.08.2021 09:00 9,7 C 17,6 C 11,4 C 12,6 C 12,6 C 2,9 C 88 % 94 % 1022,6 hPa 0,0 l/m 0,0 km/h (0 Bft) S 180 0 min 7,8 C 12,6 C 0,0 km/h (0 Bft)
25.08.2021 09:05 9,9 C 17,6 C 11,5 C 12,9 C 12,9 C 3,0 C 88 % 94 % 1022,6 hPa 0,0 l/m 0,0 km/h (0 Bft) S-SW 202 0 min 8,0 C 12,9 C 0,0 km/h (0 Bft)
25.08.2021 09:10 10,0 C 17,6 C 11,7 C 12,8 C 12,8 C 2,8 C 88 % 94 % 1022,6 hPa 0,0 l/m 0,0 km/h (0 Bft) SO 135 0 min 8,1 C 12,8 C 0,0 km/h (0 Bft)
25.08.2021 09:15 10,5 C 17,6 C 11,9 C 13,6 C 13,6 C 3,1 C 88 % 94 % 1022,8 hPa 0,0 l/m 0,0 km/h (0 Bft) S 180 0 min 8,6 C 13,6 C 0,0 km/h (0 Bft)
25.08.2021 09:20 10,7 C 17,6 C 11,9 C 14,3 C 14,3 C 3,6 C 88 % 94 % 1022,8 hPa 0,0 l/m 0,0 km/h (0 Bft) S 180 5 min 8,8 C 14,3 C 0,0 km/h (0 Bft)
25.08.2021 09:25 10,8 C 17,6 C 11,9 C 14,2 C 14,2 C 3,4 C 88 % 94 % 1022,8 hPa 0,0 l/m 0,0 km/h (0 Bft) W-SW 247 5 min 8,9 C 14,2 C 0,0 km/h (0 Bft)
25.08.2021 09:30 10,9 C 17,6 C 11,9 C 14,1 C 14,1 C 3,2 C 88 % 94 % 1022,8 hPa 0,0 l/m 0,0 km/h (0 Bft) SW 225 0 min 9,0 C 14,1 C 0,0 km/h (0 Bft)
25.08.2021 09:35 11,2 C 17,6 C 11,9 C 13,8 C 13,8 C 2,6 C 88 % 94 % 1022,4 hPa 0,0 l/m 0,0 km/h (0 Bft) S-SW 202 0 min 9,3 C 13,8 C 0,0 km/h (0 Bft)
25.08.2021 09:40 11,3 C 17,6 C 12,0 C 13,6 C 13,6 C 2,3 C 88 % 94 % 1022,4 hPa 0,0 l/m 0,0 km/h (0 Bft) SW 225 0 min 9,4 C 13,6 C 0,0 km/h (0 Bft)
25.08.2021 09:45 11,5 C 17,6 C 12,1 C 13,6 C 13,6 C 2,1 C 88 % 94 % 1022,4 hPa 0,0 l/m 0,0 km/h (0 Bft) S 180 0 min 9,6 C 13,6 C 0,0 km/h (0 Bft)
25.08.2021 09:50 11,4 C 17,6 C 12,1 C 13,6 C 13,6 C 2,2 C 88 % 94 % 1022,4 hPa 0,0 l/m 0,2 km/h (0 Bft) W-NW 292 0 min 9,5 C 13,6 C 2,1 km/h (1 Bft)
25.08.2021 09:55 11,7 C 17,6 C 12,3 C 13,6 C 13,6 C 1,9 C 88 % 94 % 1021,9 hPa 0,0 l/m 0,2 km/h (0 Bft) SW 225 0 min 9,8 C 13,6 C 2,4 km/h (1 Bft)
25.08.2021 10:00 11,8 C 17,7 C 12,4 C 13,8 C 13,8 C 2,0 C 88 % 94 % 1021,9 hPa 0,0 l/m 0,2 km/h (0 Bft) SW 225 0 min 9,9 C 13,8 C 0,0 km/h (0 Bft)
25.08.2021 10:05 11,9 C 17,7 C 12,5 C 14,0 C 14,0 C 2,1 C 88 % 94 % 1021,9 hPa 0,0 l/m 0,0 km/h (0 Bft) W-SW 247 0 min 10,0 C 14,0 C 0,0 km/h (0 Bft)
25.08.2021 10:10 12,1 C 17,7 C 12,7 C 14,2 C 14,2 C 2,1 C 88 % 94 % 1021,9 hPa 0,0 l/m 0,0 km/h (0 Bft) S-SO 157 0 min 10,2 C 14,2 C 0,0 km/h (0 Bft)
25.08.2021 10:15 12,1 C 17,6 C 12,8 C 14,4 C 14,4 C 2,3 C 88 % 94 % 1021,7 hPa 0,0 l/m 0,2 km/h (0 Bft) S 180 0 min 10,2 C 14,4 C 3,4 km/h (1 Bft)
25.08.2021 10:20 12,1 C 17,6 C 12,9 C 14,6 C 14,6 C 2,5 C 88 % 94 % 1021,7 hPa 0,0 l/m 0,2 km/h (0 Bft) SW 225 0 min 10,2 C 14,6 C 0,0 km/h (0 Bft)
25.08.2021 10:25 12,2 C 17,4 C 13,1 C 14,8 C 14,8 C 2,6 C 87 % 94 % 1021,7 hPa 0,0 l/m 0,0 km/h (0 Bft) S 180 0 min 10,1 C 14,8 C 1,6 km/h (1 Bft)
25.08.2021 10:30 12,3 C 17,4 C 13,2 C 14,9 C 14,9 C 2,6 C 87 % 94 % 1021,7 hPa 0,0 l/m 0,0 km/h (0 Bft) S-SO 157 0 min 10,2 C 14,9 C 0,0 km/h (0 Bft)
25.08.2021 10:35 12,3 C 17,4 C 13,3 C 15,1 C 15,1 C 2,8 C 87 % 93 % 1021,6 hPa 0,0 l/m 0,6 km/h (0 Bft) S-SO 157 0 min 10,2 C 15,1 C 0,0 km/h (0 Bft)
25.08.2021 10:40 12,5 C 17,4 C 13,5 C 15,2 C 15,2 C 2,7 C 88 % 94 % 1021,6 hPa 0,0 l/m 0,6 km/h (0 Bft) W-SW 247 0 min 10,6 C 15,2 C 0,0 km/h (0 Bft)
25.08.2021 10:45 12,7 C 17,4 C 13,7 C 15,5 C 15,5 C 2,8 C 87 % 94 % 1021,6 hPa 0,0 l/m 0,3 km/h (0 Bft) W-SW 247 0 min 10,6 C 15,5 C 4,3 km/h (1 Bft)
25.08.2021 10:50 12,7 C 17,4 C 13,8 C 15,6 C 15,6 C 2,9 C 87 % 93 % 1021,6 hPa 0,0 l/m 0,3 km/h (0 Bft) SW 225 0 min 10,6 C 15,6 C 0,0 km/h (0 Bft)
25.08.2021 10:55 12,7 C 17,4 C 13,9 C 15,8 C 15,8 C 3,1 C 87 % 93 % 1021,2 hPa 0,0 l/m 0,5 km/h (0 Bft) S 180 0 min 10,6 C 15,8 C 0,0 km/h (0 Bft)
25.08.2021 11:00 12,8 C 17,4 C 14,1 C 15,9 C 15,9 C 3,1 C 87 % 93 % 1021,2 hPa 0,0 l/m 0,6 km/h (0 Bft) SW 225 0 min 10,7 C 15,9 C 0,0 km/h (0 Bft)
25.08.2021 11:05 13,1 C 17,4 C 14,2 C 16,1 C 16,1 C 3,0 C 87 % 92 % 1021,2 hPa 0,0 l/m 0,3 km/h (0 Bft) S-SW 202 0 min 11,0 C 16,1 C 0,0 km/h (0 Bft)
25.08.2021 11:10 13,4 C 17,4 C 14,6 C 16,3 C 16,3 C 2,9 C 87 % 92 % 1021,2 hPa 0,0 l/m 0,3 km/h (0 Bft) SW 225 0 min 11,3 C 16,3 C 0,0 km/h (0 Bft)
25.08.2021 11:15 13,9 C 17,3 C 15,2 C 16,8 C 16,8 C 2,9 C 86 % 92 % 1021,2 hPa 0,0 l/m 0,2 km/h (0 Bft) W-SW 247 0 min 11,6 C 16,8 C 0,0 km/h (0 Bft)
25.08.2021 11:20 14,3 C 17,3 C 15,9 C 17,2 C 17,2 C 2,9 C 86 % 92 % 1021,2 hPa 0,0 l/m 0,2 km/h (0 Bft) W-SW 247 0 min 12,0 C 17,2 C 0,0 km/h (0 Bft)
25.08.2021 11:25 14,9 C 17,3 C 18,8 C 18,1 C 18,1 C 3,2 C 86 % 91 % 1021,2 hPa 0,0 l/m 0,3 km/h (0 Bft) W-SW 247 0 min 12,6 C 18,1 C 2,1 km/h (1 Bft)
25.08.2021 11:30 15,5 C 17,3 C 19,8 C 18,8 C 18,8 C 3,3 C 86 % 88 % 1021,2 hPa 0,0 l/m 0,6 km/h (0 Bft) SW 225 5 min 13,2 C 18,8 C 0,0 km/h (0 Bft)
25.08.2021 11:35 16,0 C 17,3 C 20,4 C 19,7 C 19,7 C 3,7 C 85 % 83 % 1021,0 hPa 0,0 l/m 1,0 km/h (0 Bft) W-SW 247 5 min 13,5 C 19,7 C 1,8 km/h (1 Bft)
25.08.2021 11:40 16,4 C 17,2 C 20,5 C 20,2 C 20,2 C 3,8 C 85 % 81 % 1021,0 hPa 0,0 l/m 0,8 km/h (0 Bft) S-SW 202 5 min 13,9 C 20,2 C 1,8 km/h (1 Bft)
25.08.2021 11:45 16,7 C 17,2 C 19,8 C 20,4 C 20,4 C 3,7 C 83 % 79 % 1021,0 hPa 0,0 l/m 0,6 km/h (0 Bft) W 270 5 min 13,8 C 20,4 C 3,5 km/h (1 Bft)
25.08.2021 11:50 16,7 C 17,1 C 19,1 C 20,4 C 20,4 C 3,7 C 82 % 78 % 1021,0 hPa 0,0 l/m 0,8 km/h (0 Bft) S 180 5 min 13,6 C 20,4 C 0,0 km/h (0 Bft)
25.08.2021 11:55 16,9 C 17,1 C 18,6 C 20,4 C 20,4 C 3,5 C 80 % 78 % 1021,0 hPa 0,0 l/m 0,3 km/h (0 Bft) S-SW 202 5 min 13,4 C 20,4 C 0,0 km/h (0 Bft)
25.08.2021 12:00 16,9 C 17,0 C 18,4 C 20,6 C 20,6 C 3,7 C 79 % 77 % 1021,0 hPa 0,0 l/m 0,2 km/h (0 Bft) N-NO 22 5 min 13,2 C 20,6 C 0,0 km/h (0 Bft)
25.08.2021 12:05 17,0 C 17,0 C 18,7 C 21,0 C 21,0 C 4,0 C 78 % 77 % 1021,0 hPa 0,0 l/m 0,5 km/h (0 Bft) SW 225 5 min 13,1 C 21,0 C 0,0 km/h (0 Bft)
25.08.2021 12:10 17,3 C 17,0 C 18,7 C 21,6 C 21,6 C 4,3 C 77 % 77 % 1021,0 hPa 0,0 l/m 0,6 km/h (0 Bft) S 180 5 min 13,2 C 21,6 C 0,0 km/h (0 Bft)
25.08.2021 12:15 17,6 C 17,0 C 18,7 C 22,4 C 22,4 C 4,8 C 76 % 76 % 1020,9 hPa 0,0 l/m 0,5 km/h (0 Bft) S 180 5 min 13,3 C 22,4 C 5,1 km/h (1 Bft)
25.08.2021 12:20 17,9 C 16,9 C 18,5 C 22,7 C 22,7 C 4,8 C 76 % 76 % 1020,9 hPa 0,0 l/m 0,3 km/h (0 Bft) S 180 5 min 13,6 C 22,7 C 0,0 km/h (0 Bft)
25.08.2021 12:25 18,0 C 16,9 C 18,2 C 22,9 C 22,9 C 4,9 C 74 % 76 % 1020,9 hPa 0,0 l/m 0,5 km/h (0 Bft) SW 225 5 min 13,3 C 22,9 C 1,9 km/h (1 Bft)
25.08.2021 12:30 18,0 C 16,8 C 18,1 C 22,9 C 22,9 C 4,9 C 73 % 76 % 1020,9 hPa 0,0 l/m 0,3 km/h (0 Bft) SW 225 5 min 13,1 C 22,9 C 0,0 km/h (0 Bft)
25.08.2021 12:35 18,1 C 16,8 C 17,9 C 23,2 C 23,2 C 5,1 C 72 % 76 % 1020,5 hPa 0,0 l/m 0,6 km/h (0 Bft) SW 225 5 min 13,0 C 23,2 C 2,9 km/h (1 Bft)
25.08.2021 12:40 18,1 C 16,7 C 17,8 C 23,5 C 23,5 C 5,4 C 70 % 75 % 1020,5 hPa 0,0 l/m 1,3 km/h (1 Bft) S-SW 202 5 min 12,5 C 23,5 C 2,9 km/h (1 Bft)
25.08.2021 12:45 18,1 C 16,6 C 17,7 C 23,4 C 23,4 C 5,3 C 69 % 75 % 1020,5 hPa 0,0 l/m 1,9 km/h (1 Bft) W 270 5 min 12,3 C 23,4 C 6,4 km/h (2 Bft)
25.08.2021 12:50 18,3 C 16,6 C 17,6 C 23,7 C 23,7 C 5,4 C 69 % 75 % 1020,5 hPa 0,0 l/m 1,8 km/h (1 Bft) S 180 5 min 12,5 C 23,7 C 2,6 km/h (1 Bft)
25.08.2021 12:55 18,4 C 16,6 C 17,5 C 23,4 C 23,4 C 5,0 C 69 % 76 % 1020,2 hPa 0,0 l/m 1,3 km/h (1 Bft) N-NW 337 5 min 12,6 C 23,4 C 2,4 km/h (1 Bft)
25.08.2021 13:00 18,6 C 16,6 C 18,0 C 23,5 C 23,5 C 4,9 C 69 % 76 % 1020,2 hPa 0,0 l/m 1,3 km/h (1 Bft) SW 225 5 min 12,8 C 23,5 C 2,1 km/h (1 Bft)
25.08.2021 13:05 18,9 C 16,6 C 18,7 C 24,9 C 24,9 C 6,0 C 69 % 75 % 1020,2 hPa 0,0 l/m 1,3 km/h (1 Bft) SW 225 5 min 13,1 C 24,9 C 1,9 km/h (1 Bft)
25.08.2021 13:10 19,3 C 16,6 C 18,6 C 25,4 C 25,4 C 6,1 C 67 % 74 % 1020,2 hPa 0,0 l/m 1,0 km/h (0 Bft) SW 225 5 min 13,0 C 25,4 C 0,0 km/h (0 Bft)
25.08.2021 13:15 19,4 C 16,5 C 18,3 C 25,1 C 25,1 C 5,7 C 65 % 73 % 1019,9 hPa 0,0 l/m 1,4 km/h (1 Bft) W-SW 247 5 min 12,6 C 25,1 C 8,4 km/h (2 Bft)
25.08.2021 13:20 19,3 C 16,5 C 18,2 C 24,5 C 24,5 C 5,2 C 63 % 73 % 1019,9 hPa 0,0 l/m 1,8 km/h (1 Bft) SW 225 5 min 12,1 C 24,5 C 0,0 km/h (0 Bft)
25.08.2021 13:25 19,3 C 16,5 C 18,2 C 24,5 C 24,5 C 5,2 C 64 % 73 % 1019,9 hPa 0,0 l/m 1,4 km/h (1 Bft) S-SW 202 5 min 12,3 C 24,5 C 1,6 km/h (1 Bft)
25.08.2021 13:30 19,3 C 16,5 C 18,2 C 24,7 C 24,7 C 5,4 C 64 % 73 % 1019,9 hPa 0,0 l/m 0,8 km/h (0 Bft) O-SO 112 5 min 12,3 C 24,7 C 0,0 km/h (0 Bft)
25.08.2021 13:35 19,5 C 16,5 C 18,3 C 24,9 C 24,9 C 5,4 C 64 % 73 % 1019,8 hPa 0,0 l/m 0,3 km/h (0 Bft) S 180 5 min 12,5 C 24,9 C 0,0 km/h (0 Bft)
25.08.2021 13:40 19,7 C 16,5 C 18,6 C 25,8 C 25,8 C 6,1 C 64 % 73 % 1019,8 hPa 0,0 l/m 0,6 km/h (0 Bft) SW 225 5 min 12,7 C 25,8 C 2,4 km/h (1 Bft)
25.08.2021 13:45 19,9 C 16,5 C 18,5 C 25,7 C 25,7 C 5,8 C 61 % 70 % 1019,8 hPa 0,0 l/m 2,1 km/h (1 Bft) W-SW 247 5 min 12,2 C 25,7 C 2,6 km/h (1 Bft)
25.08.2021 13:50 19,8 C 16,4 C 18,6 C 25,5 C 25,5 C 5,7 C 61 % 71 % 1019,8 hPa 0,0 l/m 2,3 km/h (1 Bft) SW 225 5 min 12,1 C 25,5 C 1,9 km/h (1 Bft)
25.08.2021 13:55 19,8 C 16,4 C 18,6 C 25,3 C 25,3 C 5,5 C 60 % 71 % 1019,6 hPa 0,0 l/m 1,3 km/h (1 Bft) W 270 5 min 11,8 C 25,3 C 3,9 km/h (1 Bft)
25.08.2021 14:00 19,9 C 16,4 C 18,7 C 25,2 C 25,2 C 5,3 C 61 % 70 % 1019,6 hPa 0,0 l/m 1,3 km/h (1 Bft) SW 225 5 min 12,2 C 25,2 C 1,6 km/h (1 Bft)
25.08.2021 14:05 19,9 C 16,4 C 18,7 C 25,0 C 25,0 C 5,1 C 59 % 70 % 1019,6 hPa 0,0 l/m 1,6 km/h (1 Bft) S 180 5 min 11,6 C 25,0 C 1,8 km/h (1 Bft)
25.08.2021 14:10 19,9 C 16,4 C 18,6 C 24,9 C 24,9 C 5,0 C 59 % 70 % 1019,6 hPa 0,0 l/m 1,3 km/h (1 Bft) SW 225 5 min 11,6 C 24,9 C 2,6 km/h (1 Bft)
25.08.2021 14:15 19,9 C 16,4 C 18,4 C 24,5 C 24,5 C 4,6 C 59 % 69 % 1019,2 hPa 0,0 l/m 1,1 km/h (1 Bft) S-SW 202 5 min 11,6 C 24,5 C 0,0 km/h (0 Bft)
25.08.2021 14:20 19,8 C 16,4 C 18,5 C 24,2 C 24,2 C 4,4 C 59 % 69 % 1019,2 hPa 0,0 l/m 1,1 km/h (1 Bft) S-SW 202 5 min 11,6 C 24,2 C 2,9 km/h (1 Bft)
25.08.2021 14:25 19,6 C 16,4 C 18,3 C 23,8 C 23,8 C 4,2 C 60 % 70 % 1019,2 hPa 0,0 l/m 1,1 km/h (1 Bft) W-SW 247 5 min 11,6 C 23,8 C 1,9 km/h (1 Bft)
25.08.2021 14:30 19,5 C 16,4 C 18,3 C 23,6 C 23,6 C 4,1 C 60 % 69 % 1019,2 hPa 0,0 l/m 1,4 km/h (1 Bft) S 180 5 min 11,5 C 23,6 C 0,0 km/h (0 Bft)
25.08.2021 14:35 19,4 C 16,5 C 18,2 C 23,5 C 23,5 C 4,1 C 61 % 70 % 1019,0 hPa 0,0 l/m 1,0 km/h (0 Bft) SW 225 5 min 11,7 C 23,5 C 3,7 km/h (1 Bft)
25.08.2021 14:40 19,5 C 16,5 C 18,2 C 23,2 C 23,2 C 3,7 C 61 % 70 % 1019,0 hPa 0,0 l/m 0,8 km/h (0 Bft) SW 225 5 min 11,8 C 23,2 C 2,9 km/h (1 Bft)
25.08.2021 14:45 19,3 C 16,5 C 18,1 C 22,9 C 22,9 C 3,6 C 59 % 70 % 1019,0 hPa 0,0 l/m 1,1 km/h (1 Bft) SW 225 5 min 11,1 C 22,9 C 2,4 km/h (1 Bft)
25.08.2021 14:50 19,2 C 16,5 C 18,1 C 22,9 C 22,9 C 3,7 C 60 % 70 % 1019,0 hPa 0,0 l/m 1,3 km/h (1 Bft) W-SW 247 5 min 11,2 C 22,9 C 2,1 km/h (1 Bft)
25.08.2021 14:55 19,3 C 16,5 C 18,3 C 23,5 C 23,5 C 4,2 C 61 % 70 % 1018,4 hPa 0,0 l/m 1,3 km/h (1 Bft) SO 135 5 min 11,6 C 23,5 C 1,8 km/h (1 Bft)
25.08.2021 15:00 19,4 C 16,5 C 18,5 C 24,1 C 24,1 C 4,7 C 61 % 71 % 1018,4 hPa 0,0 l/m 1,3 km/h (1 Bft) S 180 5 min 11,7 C 24,1 C 4,0 km/h (1 Bft)
25.08.2021 15:05 19,6 C 16,5 C 18,7 C 24,7 C 24,7 C 5,1 C 62 % 71 % 1018,4 hPa 0,0 l/m 1,3 km/h (1 Bft) W-SW 247 5 min 12,1 C 24,7 C 2,7 km/h (1 Bft)
25.08.2021 15:10 19,7 C 16,5 C 18,8 C 25,0 C 25,0 C 5,3 C 62 % 71 % 1018,4 hPa 0,0 l/m 1,8 km/h (1 Bft) SW 225 5 min 12,2 C 25,0 C 2,3 km/h (1 Bft)
25.08.2021 15:15 19,8 C 16,5 C 19,0 C 25,6 C 25,6 C 5,8 C 62 % 70 % 1018,1 hPa 0,0 l/m 1,6 km/h (1 Bft) SW 225 5 min 12,3 C 25,6 C 2,3 km/h (1 Bft)
25.08.2021 15:20 20,0 C 16,4 C 19,1 C 26,2 C 26,2 C 6,2 C 61 % 69 % 1018,1 hPa 0,0 l/m 1,4 km/h (1 Bft) S 180 5 min 12,2 C 26,2 C 1,9 km/h (1 Bft)
25.08.2021 15:25 20,0 C 16,4 C 19,2 C 25,8 C 25,8 C 5,8 C 60 % 68 % 1018,1 hPa 0,0 l/m 1,8 km/h (1 Bft) W 270 5 min 12,0 C 25,8 C 2,3 km/h (1 Bft)
25.08.2021 15:30 19,9 C 16,5 C 19,0 C 25,2 C 25,2 C 5,3 C 58 % 68 % 1018,1 hPa 0,0 l/m 2,1 km/h (1 Bft) SW 225 5 min 11,4 C 25,2 C 3,1 km/h (1 Bft)
25.08.2021 15:35 19,9 C 16,5 C 18,9 C 24,4 C 24,4 C 4,5 C 58 % 67 % 1017,9 hPa 0,0 l/m 1,6 km/h (1 Bft) W-SW 247 5 min 11,4 C 24,4 C 3,7 km/h (1 Bft)
25.08.2021 15:40 19,9 C 16,5 C 18,8 C 24,1 C 24,1 C 4,2 C 58 % 67 % 1017,9 hPa 0,0 l/m 1,6 km/h (1 Bft) SW 225 5 min 11,4 C 24,1 C 5,0 km/h (1 Bft)
25.08.2021 15:45 19,8 C 16,6 C 18,8 C 23,7 C 23,7 C 3,9 C 58 % 67 % 1017,9 hPa 0,0 l/m 1,8 km/h (1 Bft) SW 225 5 min 11,3 C 23,7 C 0,0 km/h (0 Bft)
25.08.2021 15:50 19,7 C 16,6 C 18,7 C 23,4 C 23,4 C 3,7 C 58 % 66 % 1017,9 hPa 0,0 l/m 1,6 km/h (1 Bft) SW 225 5 min 11,2 C 23,4 C 2,6 km/h (1 Bft)
25.08.2021 15:55 19,6 C 16,6 C 18,5 C 23,0 C 23,0 C 3,4 C 58 % 67 % 1017,9 hPa 0,0 l/m 1,6 km/h (1 Bft) S 180 5 min 11,1 C 23,0 C 3,4 km/h (1 Bft)
25.08.2021 16:00 19,7 C 16,6 C 18,5 C 22,8 C 22,8 C 3,1 C 58 % 67 % 1017,9 hPa 0,0 l/m 1,9 km/h (1 Bft) W 270 0 min 11,2 C 22,8 C 4,8 km/h (1 Bft)
25.08.2021 16:05 19,5 C 16,6 C 18,3 C 22,5 C 22,5 C 3,0 C 59 % 68 % 1017,9 hPa 0,0 l/m 1,6 km/h (1 Bft) NW 315 0 min 11,3 C 22,5 C 2,3 km/h (1 Bft)
25.08.2021 16:10 19,5 C 16,6 C 18,3 C 22,5 C 22,5 C 3,0 C 59 % 68 % 1017,9 hPa 0,0 l/m 1,3 km/h (1 Bft) N-NO 22 0 min 11,3 C 22,5 C 5,1 km/h (1 Bft)
25.08.2021 16:15 19,5 C 16,6 C 18,3 C 22,4 C 22,4 C 2,9 C 58 % 67 % 1017,5 hPa 0,0 l/m 1,6 km/h (1 Bft) W-SW 247 0 min 11,0 C 22,4 C 1,9 km/h (1 Bft)
25.08.2021 16:20 19,4 C 16,6 C 18,3 C 22,3 C 22,3 C 2,9 C 58 % 68 % 1017,5 hPa 0,0 l/m 1,9 km/h (1 Bft) SW 225 0 min 10,9 C 22,3 C 2,1 km/h (1 Bft)
25.08.2021 16:25 19,4 C 16,6 C 18,3 C 22,4 C 22,4 C 3,0 C 59 % 68 % 1017,5 hPa 0,0 l/m 1,6 km/h (1 Bft) SW 225 0 min 11,2 C 22,4 C 2,1 km/h (1 Bft)
25.08.2021 16:30 19,5 C 16,6 C 18,3 C 22,4 C 22,4 C 2,9 C 60 % 69 % 1017,5 hPa 0,0 l/m 1,3 km/h (1 Bft) SW 225 0 min 11,5 C 22,4 C 1,9 km/h (1 Bft)
25.08.2021 16:35 19,5 C 16,6 C 18,4 C 22,6 C 22,6 C 3,1 C 60 % 69 % 1017,2 hPa 0,0 l/m 1,1 km/h (1 Bft) SW 225 0 min 11,5 C 22,6 C 0,0 km/h (0 Bft)
25.08.2021 16:40 19,6 C 16,6 C 18,3 C 22,5 C 22,5 C 2,9 C 60 % 69 % 1017,2 hPa 0,0 l/m 1,3 km/h (1 Bft) SW 225 0 min 11,6 C 22,5 C 3,1 km/h (1 Bft)
25.08.2021 16:45 19,4 C 16,6 C 18,3 C 22,2 C 22,2 C 2,8 C 59 % 68 % 1017,2 hPa 0,0 l/m 1,9 km/h (1 Bft) SW 225 0 min 11,2 C 22,2 C 2,6 km/h (1 Bft)
25.08.2021 16:50 19,5 C 16,6 C 18,3 C 22,2 C 22,2 C 2,7 C 59 % 68 % 1017,2 hPa 0,0 l/m 2,4 km/h (1 Bft) W-SW 247 0 min 11,3 C 22,2 C 4,7 km/h (1 Bft)
25.08.2021 16:55 19,4 C 16,7 C 18,5 C 22,3 C 22,3 C 2,9 C 59 % 67 % 1016,9 hPa 0,0 l/m 2,4 km/h (1 Bft) SW 225 0 min 11,2 C 22,3 C 3,1 km/h (1 Bft)
25.08.2021 17:00 19,4 C 16,7 C 18,5 C 22,3 C 22,3 C 2,9 C 59 % 67 % 1016,9 hPa 0,0 l/m 2,3 km/h (1 Bft) W-SW 247 0 min 11,2 C 22,3 C 3,4 km/h (1 Bft)
25.08.2021 17:05 19,4 C 16,7 C 18,3 C 22,2 C 22,2 C 2,8 C 59 % 68 % 1016,9 hPa 0,0 l/m 1,6 km/h (1 Bft) SW 225 0 min 11,2 C 22,2 C 1,9 km/h (1 Bft)
25.08.2021 17:10 19,5 C 16,6 C 18,3 C 22,0 C 22,0 C 2,5 C 59 % 68 % 1016,9 hPa 0,0 l/m 1,4 km/h (1 Bft) SW 225 0 min 11,3 C 22,0 C 1,8 km/h (1 Bft)
25.08.2021 17:15 19,5 C 16,6 C 18,4 C 21,8 C 21,8 C 2,3 C 59 % 68 % 1016,9 hPa 0,0 l/m 1,6 km/h (1 Bft) SW 225 0 min 11,3 C 21,8 C 2,7 km/h (1 Bft)
25.08.2021 17:20 19,6 C 16,6 C 18,5 C 21,8 C 21,8 C 2,2 C 59 % 67 % 1016,9 hPa 0,0 l/m 1,6 km/h (1 Bft) W-SW 247 0 min 11,4 C 21,8 C 3,1 km/h (1 Bft)
25.08.2021 17:25 19,6 C 16,6 C 18,6 C 21,4 C 21,4 C 1,8 C 59 % 67 % 1016,9 hPa 0,0 l/m 2,3 km/h (1 Bft) W-SW 247 0 min 11,4 C 21,4 C 3,5 km/h (1 Bft)
25.08.2021 17:30 19,7 C 16,6 C 18,7 C 21,3 C 21,3 C 1,6 C 59 % 67 % 1016,9 hPa 0,0 l/m 2,4 km/h (1 Bft) W-SW 247 0 min 11,5 C 21,3 C 3,1 km/h (1 Bft)
25.08.2021 17:35 19,9 C 16,7 C 18,7 C 21,1 C 21,1 C 1,2 C 59 % 67 % 1016,4 hPa 0,0 l/m 2,6 km/h (1 Bft) SW 225 0 min 11,6 C 21,1 C 1,8 km/h (1 Bft)
25.08.2021 17:40 20,3 C 16,7 C 18,9 C 21,3 C 21,3 C 1,0 C 59 % 68 % 1016,4 hPa 0,0 l/m 1,9 km/h (1 Bft) W-SW 247 0 min 12,0 C 21,3 C 2,9 km/h (1 Bft)
25.08.2021 17:45 20,3 C 16,7 C 19,0 C 21,3 C 21,3 C 1,0 C 57 % 67 % 1016,4 hPa 0,0 l/m 2,1 km/h (1 Bft) S-SW 202 0 min 11,5 C 21,3 C 3,7 km/h (1 Bft)
25.08.2021 17:50 20,3 C 16,6 C 19,1 C 21,3 C 21,3 C 1,0 C 57 % 66 % 1016,4 hPa 0,0 l/m 2,3 km/h (1 Bft) SW 225 0 min 11,5 C 21,3 C 1,6 km/h (1 Bft)
25.08.2021 17:55 20,2 C 16,7 C 18,8 C 21,0 C 21,0 C 0,8 C 56 % 66 % 1016,4 hPa 0,0 l/m 2,1 km/h (1 Bft) W 270 0 min 11,1 C 21,0 C 2,1 km/h (1 Bft)
25.08.2021 18:00 20,1 C 16,7 C 18,8 C 20,8 C 20,8 C 0,7 C 55 % 65 % 1016,4 hPa 0,0 l/m 2,4 km/h (1 Bft) S 180 0 min 10,8 C 20,8 C 2,1 km/h (1 Bft)
25.08.2021 18:05 20,0 C 16,7 C 18,7 C 20,6 C 20,6 C 0,6 C 55 % 64 % 1016,4 hPa 0,0 l/m 2,7 km/h (1 Bft) W-SW 247 0 min 10,7 C 20,6 C 7,2 km/h (2 Bft)
25.08.2021 18:10 19,9 C 16,7 C 18,4 C 20,3 C 20,3 C 0,4 C 55 % 64 % 1016,4 hPa 0,0 l/m 2,6 km/h (1 Bft) W 270 0 min 10,6 C 20,3 C 2,9 km/h (1 Bft)
25.08.2021 18:15 19,6 C 16,7 C 18,2 C 20,1 C 20,1 C 0,5 C 55 % 64 % 1016,0 hPa 0,0 l/m 2,1 km/h (1 Bft) SW 225 0 min 10,3 C 20,1 C 1,9 km/h (1 Bft)
25.08.2021 18:20 19,5 C 16,7 C 18,1 C 20,0 C 20,0 C 0,5 C 56 % 65 % 1016,0 hPa 0,0 l/m 1,8 km/h (1 Bft) SW 225 0 min 10,5 C 20,0 C 0,0 km/h (0 Bft)
25.08.2021 18:25 19,4 C 16,7 C 18,1 C 19,9 C 19,9 C 0,5 C 56 % 66 % 1016,0 hPa 0,0 l/m 1,1 km/h (1 Bft) SW 225 0 min 10,4 C 19,9 C 2,4 km/h (1 Bft)
25.08.2021 18:30 19,5 C 16,7 C 18,2 C 20,0 C 20,0 C 0,5 C 57 % 66 % 1016,0 hPa 0,0 l/m 1,0 km/h (0 Bft) S-SW 202 0 min 10,8 C 20,0 C 1,6 km/h (1 Bft)
25.08.2021 18:35 19,6 C 16,7 C 18,1 C 19,9 C 19,9 C 0,3 C 57 % 67 % 1015,6 hPa 0,0 l/m 0,8 km/h (0 Bft) S-SW 202 0 min 10,8 C 19,9 C 0,0 km/h (0 Bft)
25.08.2021 18:40 19,6 C 16,7 C 17,9 C 19,7 C 19,7 C 0,1 C 57 % 67 % 1015,6 hPa 0,0 l/m 0,5 km/h (0 Bft) S-SW 202 0 min 10,8 C 19,7 C 0,0 km/h (0 Bft)
25.08.2021 18:45 19,4 C 16,8 C 17,9 C 19,6 C 19,6 C 0,2 C 58 % 69 % 1015,6 hPa 0,0 l/m 0,2 km/h (0 Bft) S-SW 202 0 min 10,9 C 19,6 C 2,1 km/h (1 Bft)
25.08.2021 18:50 19,4 C 16,8 C 18,0 C 19,6 C 19,6 C 0,2 C 59 % 69 % 1015,6 hPa 0,0 l/m 0,6 km/h (0 Bft) SW 225 0 min 11,2 C 19,6 C 0,0 km/h (0 Bft)
25.08.2021 18:55 19,5 C 16,7 C 18,0 C 19,7 C 19,7 C 0,2 C 59 % 69 % 1015,4 hPa 0,0 l/m 1,1 km/h (1 Bft) S-SW 202 0 min 11,3 C 19,7 C 2,1 km/h (1 Bft)
25.08.2021 19:00 19,5 C 16,8 C 17,9 C 19,6 C 19,6 C 0,1 C 60 % 69 % 1015,4 hPa 0,0 l/m 1,0 km/h (0 Bft) SO 135 0 min 11,5 C 19,6 C 1,6 km/h (1 Bft)
25.08.2021 19:05 19,5 C 16,8 C 17,7 C 19,4 C 19,2 C 0,0 C 60 % 70 % 1015,4 hPa 0,0 l/m 1,1 km/h (1 Bft) SW 225 0 min 11,5 C 19,2 C 0,0 km/h (0 Bft)
25.08.2021 19:10 19,2 C 16,9 C 17,5 C 19,1 C 19,0 C 0,0 C 61 % 71 % 1015,4 hPa 0,0 l/m 0,8 km/h (0 Bft) SW 225 0 min 11,5 C 19,0 C 1,6 km/h (1 Bft)
25.08.2021 19:15 19,1 C 16,9 C 17,4 C 19,0 C 18,7 C 0,0 C 61 % 71 % 1015,2 hPa 0,0 l/m 0,3 km/h (0 Bft) W-SW 247 0 min 11,4 C 18,7 C 0,0 km/h (0 Bft)
25.08.2021 19:20 19,1 C 16,9 C 17,3 C 18,9 C 18,6 C 0,0 C 61 % 71 % 1015,2 hPa 0,0 l/m 0,5 km/h (0 Bft) SW 225 0 min 11,4 C 18,6 C 1,6 km/h (1 Bft)
25.08.2021 19:25 18,8 C 16,9 C 17,2 C 18,6 C 18,3 C 0,0 C 61 % 71 % 1015,2 hPa 0,0 l/m 0,6 km/h (0 Bft) SW 225 0 min 11,1 C 18,3 C 2,3 km/h (1 Bft)
25.08.2021 19:30 18,8 C 16,9 C 17,2 C 18,6 C 18,2 C 0,0 C 62 % 72 % 1015,2 hPa 0,0 l/m 0,5 km/h (0 Bft) SO 135 0 min 11,4 C 18,2 C 0,0 km/h (0 Bft)
25.08.2021 19:35 18,6 C 16,9 C 17,1 C 18,4 C 18,0 C 0,0 C 62 % 72 % 1015,0 hPa 0,0 l/m 0,2 km/h (0 Bft) S 180 0 min 11,2 C 18,0 C 0,0 km/h (0 Bft)
25.08.2021 19:40 18,6 C 16,9 C 17,0 C 18,4 C 18,0 C 0,0 C 63 % 72 % 1015,0 hPa 0,0 l/m 0,0 km/h (0 Bft) S 180 0 min 11,4 C 18,0 C 0,0 km/h (0 Bft)
25.08.2021 19:45 18,4 C 16,9 C 17,0 C 18,2 C 17,8 C 0,0 C 64 % 71 % 1015,0 hPa 0,0 l/m 0,0 km/h (0 Bft) W-NW 292 0 min 11,5 C 17,8 C 0,0 km/h (0 Bft)
25.08.2021 19:50 18,4 C 16,9 C 16,9 C 18,2 C 17,7 C 0,0 C 64 % 72 % 1015,0 hPa 0,0 l/m 0,0 km/h (0 Bft) SO 135 0 min 11,5 C 17,7 C 0,0 km/h (0 Bft)
25.08.2021 19:55 18,2 C 16,9 C 16,7 C 18,0 C 17,5 C 0,0 C 65 % 72 % 1014,7 hPa 0,0 l/m 0,0 km/h (0 Bft) SO 135 0 min 11,5 C 17,5 C 0,0 km/h (0 Bft)
25.08.2021 20:00 18,1 C 16,9 C 16,7 C 17,9 C 17,5 C 0,0 C 65 % 73 % 1014,7 hPa 0,0 l/m 0,0 km/h (0 Bft) SO 135 0 min 11,4 C 17,5 C 0,0 km/h (0 Bft)
25.08.2021 20:05 18,1 C 17,0 C 16,6 C 17,8 C 17,3 C 0,0 C 66 % 75 % 1014,7 hPa 0,0 l/m 0,0 km/h (0 Bft) SO 135 0 min 11,6 C 17,3 C 0,0 km/h (0 Bft)
25.08.2021 20:10 17,9 C 17,0 C 16,5 C 17,7 C 17,2 C 0,0 C 66 % 75 % 1014,7 hPa 0,0 l/m 0,0 km/h (0 Bft) S-SW 202 0 min 11,5 C 17,2 C 0,0 km/h (0 Bft)
25.08.2021 20:15 17,8 C 17,0 C 16,5 C 17,5 C 17,0 C 0,0 C 67 % 76 % 1014,5 hPa 0,0 l/m 0,0 km/h (0 Bft) SW 225 0 min 11,6 C 17,0 C 0,0 km/h (0 Bft)
25.08.2021 20:20 17,7 C 17,0 C 16,3 C 17,5 C 17,0 C 0,0 C 67 % 76 % 1014,5 hPa 0,0 l/m 0,2 km/h (0 Bft) SW 225 0 min 11,5 C 17,0 C 0,0 km/h (0 Bft)
25.08.2021 20:25 17,6 C 17,0 C 16,3 C 17,4 C 16,9 C 0,0 C 68 % 77 % 1014,5 hPa 0,0 l/m 0,2 km/h (0 Bft) SO 135 0 min 11,6 C 16,9 C 0,0 km/h (0 Bft)
25.08.2021 20:30 17,6 C 17,0 C 16,2 C 17,3 C 16,8 C 0,0 C 68 % 77 % 1014,5 hPa 0,0 l/m 0,0 km/h (0 Bft) S 180 0 min 11,6 C 16,8 C 0,0 km/h (0 Bft)
25.08.2021 20:35 17,4 C 17,0 C 16,2 C 17,2 C 16,8 C 0,0 C 68 % 76 % 1014,2 hPa 0,0 l/m 0,0 km/h (0 Bft) SW 225 0 min 11,4 C 16,8 C 0,0 km/h (0 Bft)
25.08.2021 20:40 17,4 C 17,0 C 16,2 C 17,2 C 16,8 C 0,0 C 68 % 76 % 1014,2 hPa 0,0 l/m 0,0 km/h (0 Bft) S 180 0 min 11,4 C 16,8 C 0,0 km/h (0 Bft)
25.08.2021 20:45 17,3 C 17,0 C 16,1 C 17,1 C 16,7 C 0,0 C 69 % 76 % 1014,2 hPa 0,0 l/m 0,0 km/h (0 Bft) S-SO 157 0 min 11,6 C 16,7 C 0,0 km/h (0 Bft)
25.08.2021 20:50 17,2 C 17,0 C 16,1 C 17,0 C 16,7 C 0,0 C 69 % 76 % 1014,2 hPa 0,0 l/m 0,0 km/h (0 Bft) SO 135 0 min 11,5 C 16,7 C 0,0 km/h (0 Bft)
25.08.2021 20:55 17,2 C 17,0 C 16,0 C 17,0 C 16,5 C 0,0 C 69 % 77 % 1014,1 hPa 0,0 l/m 0,0 km/h (0 Bft) SO 135 0 min 11,5 C 16,5 C 0,0 km/h (0 Bft)
25.08.2021 21:00 17,2 C 17,1 C 15,9 C 16,9 C 16,4 C 0,0 C 69 % 77 % 1014,1 hPa 0,0 l/m 0,2 km/h (0 Bft) W 270 0 min 11,5 C 16,4 C 0,0 km/h (0 Bft)
25.08.2021 21:05 17,0 C 17,1 C 15,9 C 16,7 C 16,2 C 0,0 C 70 % 77 % 1014,1 hPa 0,0 l/m 0,2 km/h (0 Bft) SW 225 0 min 11,5 C 16,2 C 0,0 km/h (0 Bft)
25.08.2021 21:10 17,1 C 17,1 C 15,8 C 16,8 C 16,1 C 0,0 C 70 % 78 % 1014,1 hPa 0,0 l/m 0,0 km/h (0 Bft) W 270 0 min 11,6 C 16,1 C 0,0 km/h (0 Bft)
25.08.2021 21:15 17,0 C 17,1 C 15,8 C 16,7 C 16,1 C 0,0 C 70 % 78 % 1013,8 hPa 0,0 l/m 0,0 km/h (0 Bft) SW 225 0 min 11,5 C 16,1 C 0,0 km/h (0 Bft)
25.08.2021 21:20 17,0 C 17,1 C 15,8 C 16,7 C 16,2 C 0,0 C 70 % 78 % 1013,8 hPa 0,0 l/m 0,0 km/h (0 Bft) SW 225 0 min 11,5 C 16,2 C 0,0 km/h (0 Bft)
25.08.2021 21:25 16,9 C 17,1 C 15,8 C 16,7 C 16,3 C 0,0 C 71 % 78 % 1013,8 hPa 0,0 l/m 0,0 km/h (0 Bft) SW 225 0 min 11,6 C 16,3 C 0,0 km/h (0 Bft)
25.08.2021 21:30 16,9 C 17,1 C 15,8 C 16,7 C 16,3 C 0,0 C 71 % 78 % 1013,8 hPa 0,0 l/m 0,0 km/h (0 Bft) SW 225 0 min 11,6 C 16,3 C 0,0 km/h (0 Bft)
25.08.2021 21:35 17,1 C 17,1 C 15,8 C 16,9 C 16,5 C 0,0 C 71 % 78 % 1013,7 hPa 0,0 l/m 0,0 km/h (0 Bft) SW 225 0 min 11,8 C 16,5 C 0,0 km/h (0 Bft)
25.08.2021 21:40 17,1 C 17,1 C 15,8 C 16,9 C 16,5 C 0,0 C 71 % 79 % 1013,7 hPa 0,0 l/m 0,0 km/h (0 Bft) SW 225 0 min 11,8 C 16,5 C 0,0 km/h (0 Bft)
25.08.2021 21:45 17,1 C 17,1 C 15,9 C 16,9 C 16,6 C 0,0 C 71 % 79 % 1013,7 hPa 0,0 l/m 0,0 km/h (0 Bft) SW 225 0 min 11,8 C 16,6 C 0,0 km/h (0 Bft)
25.08.2021 21:50 17,0 C 17,1 C 15,9 C 16,9 C 16,7 C 0,0 C 71 % 79 % 1013,7 hPa 0,0 l/m 0,0 km/h (0 Bft) SW 225 0 min 11,7 C 16,7 C 0,0 km/h (0 Bft)
25.08.2021 21:55 17,1 C 17,1 C 15,9 C 17,0 C 16,8 C 0,0 C 71 % 79 % 1013,5 hPa 0,0 l/m 0,0 km/h (0 Bft) SW 225 0 min 11,8 C 16,8 C 0,0 km/h (0 Bft)
25.08.2021 22:00 17,1 C 17,1 C 15,9 C 17,0 C 16,8 C 0,0 C 71 % 79 % 1013,5 hPa 0,0 l/m 0,0 km/h (0 Bft) SW 225 0 min 11,8 C 16,8 C 0,0 km/h (0 Bft)
25.08.2021 22:05 17,1 C 17,1 C 15,9 C 17,0 C 16,8 C 0,0 C 71 % 79 % 1013,5 hPa 0,0 l/m 0,0 km/h (0 Bft) SW 225 0 min 11,8 C 16,8 C 0,0 km/h (0 Bft)
25.08.2021 22:10 17,1 C 17,1 C 15,9 C 17,0 C 16,8 C 0,0 C 71 % 79 % 1013,5 hPa 0,0 l/m 0,0 km/h (0 Bft) SW 225 0 min 11,8 C 16,8 C 0,0 km/h (0 Bft)
25.08.2021 22:15 17,0 C 17,2 C 15,9 C 16,9 C 16,7 C 0,0 C 71 % 79 % 1013,4 hPa 0,0 l/m 0,0 km/h (0 Bft) SW 225 0 min 11,7 C 16,7 C 0,0 km/h (0 Bft)
25.08.2021 22:20 17,1 C 17,2 C 15,9 C 17,0 C 16,8 C 0,0 C 71 % 79 % 1013,4 hPa 0,0 l/m 0,3 km/h (0 Bft) SW 225 0 min 11,8 C 16,8 C 0,0 km/h (0 Bft)
25.08.2021 22:25 17,1 C 17,2 C 15,9 C 17,0 C 16,9 C 0,0 C 71 % 79 % 1013,4 hPa 0,0 l/m 0,3 km/h (0 Bft) SW 225 0 min 11,8 C 16,9 C 0,0 km/h (0 Bft)
25.08.2021 22:30 17,2 C 17,2 C 15,9 C 17,1 C 16,9 C 0,0 C 71 % 79 % 1013,4 hPa 0,0 l/m 0,2 km/h (0 Bft) SW 225 0 min 11,9 C 16,9 C 0,0 km/h (0 Bft)
25.08.2021 22:35 17,3 C 17,2 C 15,9 C 17,2 C 16,9 C 0,0 C 70 % 78 % 1013,4 hPa 0,0 l/m 0,2 km/h (0 Bft) SW 225 0 min 11,8 C 16,9 C 0,0 km/h (0 Bft)
25.08.2021 22:40 17,2 C 17,2 C 15,9 C 17,1 C 17,0 C 0,0 C 70 % 78 % 1013,4 hPa 0,0 l/m 0,2 km/h (0 Bft) SW 225 0 min 11,7 C 17,0 C 1,9 km/h (1 Bft)
25.08.2021 22:45 17,2 C 17,2 C 16,0 C 17,1 C 17,0 C 0,0 C 70 % 78 % 1013,4 hPa 0,0 l/m 0,6 km/h (0 Bft) W-SW 247 0 min 11,7 C 17,0 C 2,4 km/h (1 Bft)
25.08.2021 22:50 17,2 C 17,2 C 16,0 C 17,1 C 17,0 C 0,0 C 70 % 78 % 1013,4 hPa 0,0 l/m 0,6 km/h (0 Bft) SW 225 0 min 11,7 C 17,0 C 0,0 km/h (0 Bft)
25.08.2021 22:55 17,3 C 17,2 C 16,0 C 17,2 C 17,0 C 0,0 C 70 % 78 % 1013,1 hPa 0,0 l/m 0,3 km/h (0 Bft) SW 225 0 min 11,8 C 17,0 C 0,0 km/h (0 Bft)
25.08.2021 23:00 17,3 C 17,2 C 16,0 C 17,2 C 17,0 C 0,0 C 70 % 78 % 1013,1 hPa 0,0 l/m 0,3 km/h (0 Bft) SW 225 0 min 11,8 C 17,0 C 0,0 km/h (0 Bft)
25.08.2021 23:05 17,2 C 17,2 C 15,9 C 17,1 C 17,0 C 0,0 C 70 % 78 % 1013,1 hPa 0,0 l/m 0,3 km/h (0 Bft) W-SW 247 0 min 11,7 C 17,0 C 0,0 km/h (0 Bft)
25.08.2021 23:10 17,2 C 17,2 C 15,9 C 17,1 C 16,9 C 0,0 C 70 % 78 % 1013,1 hPa 0,0 l/m 0,3 km/h (0 Bft) SW 225 0 min 11,7 C 16,9 C 0,0 km/h (0 Bft)
25.08.2021 23:15 17,3 C 17,2 C 15,9 C 17,2 C 16,9 C 0,0 C 70 % 78 % 1012,8 hPa 0,0 l/m 0,2 km/h (0 Bft) W-SW 247 0 min 11,8 C 16,9 C 1,8 km/h (1 Bft)
25.08.2021 23:20 17,2 C 17,2 C 15,9 C 17,1 C 16,9 C 0,0 C 69 % 78 % 1012,8 hPa 0,0 l/m 0,5 km/h (0 Bft) SW 225 0 min 11,5 C 16,9 C 1,9 km/h (1 Bft)
25.08.2021 23:25 17,2 C 17,2 C 15,9 C 17,1 C 16,9 C 0,0 C 70 % 77 % 1012,8 hPa 0,0 l/m 0,6 km/h (0 Bft) SW 225 0 min 11,7 C 16,9 C 0,0 km/h (0 Bft)
25.08.2021 23:30 17,2 C 17,2 C 15,9 C 17,1 C 16,8 C 0,0 C 69 % 77 % 1012,8 hPa 0,0 l/m 0,6 km/h (0 Bft) W-SW 247 0 min 11,5 C 16,8 C 2,1 km/h (1 Bft)
25.08.2021 23:35 17,2 C 17,2 C 15,9 C 17,1 C 16,8 C 0,0 C 70 % 78 % 1012,4 hPa 0,0 l/m 0,5 km/h (0 Bft) SW 225 0 min 11,7 C 16,8 C 0,0 km/h (0 Bft)
25.08.2021 23:40 17,1 C 17,2 C 15,9 C 17,0 C 16,7 C 0,0 C 70 % 78 % 1012,4 hPa 0,0 l/m 0,3 km/h (0 Bft) SW 225 0 min 11,6 C 16,7 C 0,0 km/h (0 Bft)
25.08.2021 23:45 17,0 C 17,2 C 15,8 C 16,8 C 16,5 C 0,0 C 70 % 78 % 1012,4 hPa 0,0 l/m 0,0 km/h (0 Bft) SW 225 0 min 11,5 C 16,5 C 0,0 km/h (0 Bft)
25.08.2021 23:50 17,1 C 17,2 C 15,7 C 16,9 C 16,4 C 0,0 C 70 % 79 % 1012,4 hPa 0,0 l/m 0,2 km/h (0 Bft) W-SW 247 0 min 11,6 C 16,4 C 2,4 km/h (1 Bft)
25.08.2021 23:55 16,9 C 17,2 C 15,7 C 16,7 C 16,3 C 0,0 C 71 % 79 % 1012,0 hPa 0,0 l/m 0,3 km/h (0 Bft) W 270 0 min 11,6 C 16,3 C 0,0 km/h (0 Bft)
_ Min-Zeit 06:25 13:50 06:15 05:30 05:25 00:00 18:00 18:05 23:55 - 00:00 - - - 06:25 05:25 00:00
Minimum _ 6,0 C 16,4 C 7,6 C 6,4 C 6,4 C 0,0 C 55 % 64 % 1012,0 hPa - 0,0 km/h (0 Bft) - - - 4,0 C 6,4 C 0,0 km/h (0 Bft)
_ Max-Zeit 17:40 00:00 11:40 15:20 15:20 15:20 04:25 07:50 03:15 00:00 18:05 - - 06:25 11:40 15:20 13:15
Maximum _ 20,3 C 18,9 C 20,5 C 26,2 C 26,2 C 6,2 C 88 % 95 % 1024,3 hPa 0,0 l/m 2,7 km/h
W-SW (1 Bft)
- - 5 min 13,9 C 26,2 C 8,4 km/h
W-SW (2 Bft)
Durchschnitt _ 13,8 C 17,4 C 13,9 C 15,3 C 15,2 C 1,6 C 76 % 83 % 1019,7 hPa #0,0 l/m 0,5 km/h (0 Bft) SW - #5:55 h 9,3 C 15,2 C 0,8 km/h (0 Bft)
2021 www.wetterstation-wechselburg.de